Printer-friendly version

IAU Minor Planet Center

Minor Planet Center

89P/Russell

Orbital Elements

The following orbital elements are taken from MPC 56804:
89P/Russell
Epoch 2009 Sept. 6.0 TT = JDT 2455080.5
T 2009 Aug. 17.1630 TT                                  MPC
q   2.279933             (2000.0)            P               Q
n   0.1332243      Peri.  249.3242      +0.3560403      +0.9238454
a   3.796764       Node    42.3849      -0.7609050      +0.3739037
e   0.399506       Incl.   12.0315      -0.5424563      +0.0818886
P   7.40
From 93 observations 1980-2002, mean residual 0".8.
Elements are also available for the current standard epoch:
89P/Russell
Epoch 2009 June 18.0 TT = JDT 2455000.5
T 2009 Aug. 17.1771 TT                                  MPC
q   2.279933             (2000.0)            P               Q
n   0.1332865      Peri.  249.3226      +0.3561108      +0.9238146
a   3.795584       Node    42.3911      -0.7608753      +0.3739751
e   0.399320       Incl.   12.0321      -0.5424517      +0.0819095
P   7.39
An explanation of the orbital elements is available.

These orbital elements are also available in forms suitable for loading into a number of popular planetarium-type software programs.


Ephemeris

The following ephemeris is at intervals of five days. A daily ephemeris covering the same time interval is also available.

Personalized ephemerides for this (and other) objects may be generated using the Minor Planet & Comet Ephemeris Service.

Recent magnitude estimates for this comet (as reported to the ICQ) may be available.

Date    TT    R. A. (2000) Decl.     Delta      r     Elong.  Phase   m1    m2

WARNING!

This comet gets close to the sun during the period covered in the ephemeris below. Observers are warned to be wary of observing comets near the sun. NEVER point any kind of optical instrument at the sun--instant blindness will be the probable result.

2009 06 08 18 27.99 -38 06.3 1.369 2.335 156.5 10.0 17.7 19.7 2009 06 13 18 24.79 -38 44.5 1.347 2.327 159.9 8.6 17.6 19.6 2009 06 18 18 21.10 -39 19.2 1.331 2.320 162.4 7.6 17.6 19.5 2009 06 23 18 17.07 -39 49.5 1.322 2.314 163.5 7.2 17.6 19.5 2009 06 28 18 12.87 -40 14.7 1.318 2.308 162.8 7.5 17.5 19.5 2009 07 03 18 08.72 -40 34.5 1.319 2.303 160.5 8.5 17.5 19.5 2009 07 08 18 04.80 -40 48.6 1.327 2.298 157.3 9.8 17.5 19.6 2009 07 13 18 01.29 -40 57.2 1.339 2.294 153.4 11.5 17.5 19.6 2009 07 18 17 58.35 -41 00.7 1.357 2.290 149.2 13.1 17.6 19.7 2009 07 23 17 56.11 -40 59.3 1.380 2.287 144.9 14.8 17.6 19.8 2009 07 28 17 54.69 -40 53.8 1.408 2.285 140.5 16.4 17.6 19.9 2009 08 02 17 54.16 -40 44.8 1.439 2.283 136.2 17.9 17.7 20.0 2009 08 07 17 54.53 -40 32.9 1.475 2.281 132.0 19.3 17.7 20.1 2009 08 12 17 55.80 -40 18.6 1.514 2.280 127.8 20.5 17.8 20.2 2009 08 17 17 57.97 -40 02.4 1.556 2.280 123.8 21.7 17.8 20.3 2009 08 22 18 01.00 -39 44.4 1.601 2.280 119.9 22.6 17.9 20.4 2009 08 27 18 04.86 -39 25.1 1.648 2.281 116.1 23.4 18.0 20.5 2009 09 01 18 09.48 -39 04.5 1.698 2.282 112.4 24.1 18.0 20.6 2009 09 06 18 14.81 -38 42.8 1.750 2.284 108.9 24.7 18.1 20.7 2009 09 11 18 20.79 -38 19.9 1.803 2.287 105.4 25.1 18.2 20.7 2009 09 16 18 27.35 -37 55.8 1.859 2.290 102.0 25.4 18.2 20.8 2009 09 21 18 34.45 -37 30.4 1.915 2.294 98.7 25.6 18.3 20.9 2009 09 26 18 42.02 -37 03.6 1.973 2.298 95.5 25.7 18.4 21.0 2009 10 01 18 50.01 -36 35.4 2.032 2.303 92.4 25.7 18.5 21.0 2009 10 06 18 58.37 -36 05.7 2.091 2.308 89.3 25.7 18.6 21.1 2009 10 11 19 07.04 -35 34.4 2.152 2.314 86.3 25.5 18.6 21.2 2009 10 16 19 15.99 -35 01.3 2.213 2.320 83.4 25.3 18.7 21.2 2009 10 21 19 25.16 -34 26.5 2.274 2.327 80.5 25.0 18.8 21.3 2009 10 26 19 34.53 -33 49.8 2.336 2.334 77.6 24.6 18.9 21.3 2009 10 31 19 44.05 -33 11.2 2.398 2.342 74.8 24.1 18.9 21.4 2009 11 05 19 53.69 -32 30.8 2.460 2.350 72.0 23.7 19.0 21.4 2009 11 10 20 03.41 -31 48.5 2.522 2.359 69.2 23.1 19.1 21.5 2009 11 15 20 13.20 -31 04.3 2.583 2.369 66.5 22.5 19.2 21.5 2009 11 20 20 23.03 -30 18.3 2.645 2.378 63.7 21.9 19.3 21.6 2009 11 25 20 32.87 -29 30.5 2.705 2.388 61.0 21.2 19.3 21.6 2009 11 30 20 42.71 -28 41.0 2.766 2.399 58.3 20.5 19.4 21.6 2009 12 05 20 52.52 -27 49.8 2.825 2.410 55.6 19.7 19.5 21.7 2009 12 10 21 02.29 -26 57.2 2.884 2.422 52.9 18.9 19.6 21.7 2009 12 15 21 12.02 -26 03.0 2.942 2.433 50.3 18.1 19.6 21.7 2009 12 20 21 21.69 -25 07.5 2.999 2.446 47.6 17.3 19.7 21.7 2009 12 25 21 31.29 -24 10.7 3.055 2.458 44.9 16.4 19.8 21.8 2009 12 30 21 40.81 -23 12.9 3.109 2.471 42.3 15.5 19.9 21.8 2010 01 04 21 50.24 -22 14.0 3.162 2.485 39.6 14.6 19.9 21.8 2010 01 09 21 59.59 -21 14.3 3.213 2.498 37.0 13.7 20.0 21.8 2010 01 14 22 08.85 -20 13.8 3.263 2.513 34.3 12.8 20.1 21.8 2010 01 19 22 18.01 -19 12.7 3.311 2.527 31.7 11.8 20.1 21.8 2010 01 24 22 27.07 -18 11.1 3.356 2.542 29.1 10.8 20.2 21.8 2010 01 29 22 36.04 -17 09.2 3.400 2.556 26.4 9.9 20.3 21.8 2010 02 03 22 44.90 -16 07.0 3.442 2.572 23.8 8.9 20.3 21.8 2010 02 08 22 53.67 -15 04.6 3.482 2.587 21.3 7.9 20.4 21.8 2010 02 13 23 02.33 -14 02.2 3.519 2.603 18.7 7.0 20.5 21.8 2010 02 18 23 10.90 -13 00.0 3.554 2.619 16.2 6.0 20.5 21.8 2010 02 23 23 19.37 -11 57.9 3.586 2.635 13.7 5.1 20.6 21.8 2010 02 28 23 27.73 -10 56.2 3.615 2.652 11.4 4.2 20.6 21.8 2010 03 05 23 36.00 -09 54.9 3.642 2.668 9.3 3.4 20.7 21.8 2010 03 10 23 44.17 -08 54.2 3.667 2.685 7.5 2.8 20.8 21.8 2010 03 15 23 52.24 -07 54.0 3.688 2.702 6.5 2.4 20.8 21.8 2010 03 20 00 00.21 -06 54.6 3.706 2.720 6.6 2.4 20.9 21.8 2010 03 25 00 08.09 -05 55.9 3.722 2.737 7.8 2.8 20.9 21.8 2010 03 30 00 15.86 -04 58.2 3.734 2.755 9.6 3.5 21.0 21.9 2010 04 04 00 23.53 -04 01.4 3.744 2.772 11.8 4.2 21.0 22.0 2010 04 09 00 31.10 -03 05.7 3.750 2.790 14.2 5.1 21.1 22.0 2010 04 14 00 38.57 -02 11.1 3.753 2.808 16.8 5.9 21.1 22.1 2010 04 19 00 45.93 -01 17.6 3.753 2.826 19.5 6.8 21.1 22.1 2010 04 24 00 53.18 -00 25.4 3.750 2.845 22.2 7.7 21.2 22.2 2010 04 29 01 00.32 +00 25.5 3.744 2.863 25.0 8.5 21.2 22.2 2010 05 04 01 07.33 +01 15.0 3.735 2.882 27.8 9.4 21.3 22.3 2010 05 09 01 14.23 +02 03.2 3.723 2.900 30.7 10.2 21.3 22.3 2010 05 14 01 21.00 +02 49.9 3.707 2.919 33.6 11.0 21.3 22.4 2010 05 19 01 27.64 +03 35.0 3.688 2.938 36.5 11.8 21.4 22.4 2010 05 24 01 34.12 +04 18.7 3.667 2.957 39.5 12.6 21.4 22.4 2010 05 29 01 40.46 +05 00.7 3.642 2.975 42.5 13.3 21.4 22.4 2010 06 03 01 46.64 +05 41.1 3.615 2.994 45.6 14.0 21.4 22.5 2010 06 08 01 52.64 +06 19.9 3.585 3.013 48.7 14.7 21.5 22.5 2010 06 13 01 58.46 +06 57.0 3.552 3.033 51.9 15.3 21.5 22.5 2010 06 18 02 04.09 +07 32.4 3.516 3.052 55.2 15.9 21.5 22.5 2010 06 23 02 09.50 +08 06.0 3.478 3.071 58.5 16.4 21.5 22.5 2010 06 28 02 14.68 +08 37.9 3.437 3.090 61.8 16.9 21.5 22.5 2010 07 03 02 19.62 +09 08.1 3.395 3.109 65.2 17.3 21.5 22.5 2010 07 08 02 24.30 +09 36.5 3.350 3.128 68.7 17.6 21.6 22.5 2010 07 13 02 28.69 +10 03.0 3.304 3.148 72.3 17.9 21.6 22.5

Back to Observable Comets


Valid HTML 4.01!